Tracking 27107 objects as of 21-Mar-2023
HD Live streaming from Space Station
objects crossing your sky now

EKRAN 7

Track EKRAN 7 now!
EKRAN 7 is classified as:


NORAD ID: 12564
Int'l Code: 1981-061A
Perigee: 35,760.1 km
Apogee: 35,804.5 km
Inclination: 9.3 °
Period: 1,435.5 minutes
Semi major axis: 42153 km
RCS: 3.9811 m2 (large)
Launch date: June 26, 1981
Source: Commonwealth of Independent States (former USSR) (CIS)
Launch site: TYURATAM MISSILE AND SPACE COMPLEX (TTMTR)
Your satellite tracking list
Your tracking list is empty




NASA's NSSDC Master Catalog

Two Line Element Set (TLE):
1 12564U 81061A   23079.19230024  .00000030  00000-0  00000-0 0  9999
2 12564   9.3085 304.3549 0005261  72.4223 287.0293  1.00312577117621
Source of the keplerian elements: AFSPC